Location: Makanda
(37.6176°N, 89.2090°W)
Time: 12:43:49
(UTC+00:00)

Sich 1 Rocket - Pass Details

Date: 23 September 2019
Orbit: 617 x 652 km, 82.5° (Epoch: 20 October)

Event Time Altitude Azimuth Distance (km) Brightness Sun altitude
Rises 10:49:59 0° 346° (NNW) 2,925 7.0 -11.7°
Reaches altitude 10° 10:52:16 10° 341° (NNW) 2,018 6.1 -11.3°
Maximum altitude 10:56:34 48° 267° (W) 836 3.8 -10.4°
Drops below altitude 10° 11:00:53 10° 194° (SSW) 2,025 6.0 -9.6°
Sets 11:03:11 0° 188° (S) 2,935 6.9 -9.2°
